Temperature
18 18 17 17 18 18 17 17 17 17 17 17 17 17 17 17 17 17 17 18 18 17 17 17 17 17 17 17 17 17 17 16 16 16 16 16 16 16 16 16 16 16 16
18 18 18 17 18 18 18 17 17 17 17 17 17 17 17 18 17 17 17 17 18 18 18 17 17 17 17 17 17 17 17 17 17 16 16 16 16 16 16 16 16 16 16
18 18 18 18 18 18 17 17 17 17 17 18 17 17 17 17 17 17 17 17 17 17 18 18 17 17 17 17 17 17 17 17 17 17 16 16 16 16 16 16 16 16 16
18 18 18 18 18 18 18 18 18 18 18 18 18 18 18 17 17 17 17 17 17 17 17 17 17 17 17 17 17 17 17 17 17 17 17 16 16 16 16 16 16 16 16
18 18 18 18 18 18 18 18 18 18 18 18 18 18 18 18 18 18 18 17 17 17 17 17 17 17 17 17 17 17 17 17 17 17 16 16 16 16 16 16 16 16 16
18 18 18 18 18 18 18 18 18 18 18 18 18 18 18 18 18 18 18 18 18 18 18 17 17 17 17 17 17 17 17 17 17 17 16 16 16 16 16 16 16 16 16
18 18 18 18 18 18 18 18 18 18 18 18 18 18 18 18 18 18 18 18 18 18 18 17 17 17 17 17 17 17 17 17 17 17 17 16 16 16 16 16 16 16 16
18 18 18 18 18 18 18 17 17 18 18 18 18 18 18 19 19 19 18 18 18 18 18 18 17 17 17 17 17 17 17 17 17 17 17 16 16 16 16 16 16 16 16
18 18 18 18 18 17 17 17 17 17 18 18 18 18 18 19 19 19 18 18 18 18 18 18 17 17 17 17 17 17 17 17 17 17 17 16 16 16 16 16 16 16 16
18 18 18 18 18 17 17 17 17 17 17 17 17 17 17 18 18 19 19 18 18 17 17 17 18 17 17 17 17 17 17 17 17 17 16 16 16 16 16 16 16 16 15
18 18 18 18 18 17 17 17 17 17 17 17 17 17 17 17 17 18 18 18 18 17 17 17 17 17 17 17 17 17 17 17 17 17 16 16 16 16 16 16 15 15 15
18 18 18 18 18 17 17 17 17 17 17 17 17 17 17 17 17 17 17 17 17 17 17 17 17 17 17 16 16 16 16 17 16 16 16 16 16 16 16 16 15 15 15
18 18 18 18 17 17 17 17 17 17 17 17 17 17 17 17 17 17 17 17 17 17 16 16 16 16 16 16 16 16 16 16 16 16 16 16 16 16 16 16 15 15 15
18 18 17 17 17 17 17 17 17 17 17 17 17 16 16 16 16 16 16 16 16 16 16 16 16 16 16 15 15 15 15 15 15 15 15 15 15 15 15 15 15 15 15
17 17 17 17 17 17 17 17 17 16 16 16 16 16 16 16 16 16 16 16 16 16 16 16 15 15 15 15 15 15 14 15 15 15 15 15 15 15 15 14 14 14 14
18 17 17 17 17 17 17 17 16 16 16 16 16 16 16 16 16 16 16 16 15 15 15 15 15 15 14 14 14 14 14 14 14 14 14 14 14 14 14 14 14 14 13
17 17 17 17 17 16 16 16 16 16 16 16 16 16 16 16 16 16 15 15 15 15 15 14 14 14 14 14 13 13 13 13 13 13 13 13 13 13 13 13 13 13 13
17 17 17 17 16 16 16 16 16 16 15 15 15 15 15 15 15 15 15 15 15 15 14 14 14 13 13 13 13 13 13 13 12 13 13 12 12 12 12 12 12 12 12
17 17 17 16 16 16 16 16 15 15 15 15 15 15 15 15 15 15 15 14 14 14 14 14 13 13 12 12 12 12 12 12 12 12 12 12 12 12 12 11 11 11 11
17 16 16 16 16 16 15 15 15 15 15 15 15 14 14 14 14 14 14 14 14 14 13 13 13 12 12 12 12 12 12 12 11 11 11 11 11 11 11 11 11 11 11
16 16 16 16 15 15 15 15 15 15 14 14 14 14 14 14 14 14 14 14 14 13 13 13 12 12 12 11 11 11 11 11 11 11 11 10 10 10 10 10 10 10 10
16 16 15 15 15 15 15 15 14 14 14 14 13 13 13 13 13 13 13 13 13 13 12 12 12 12 11 11 11 11 11 11 10 10 10 10 10 10 10 9 9 9 9
15 15 15 15 15 14 14 14 14 14 13 13 13 13 13 13 13 13 13 12 12 12 12 11 11 11 11 11 11 11 10 10 10 10 10 10 9 9 9 9 9 9 9
15 14 14 14 14 14 14 14 14 13 13 13 13 12 12 12 12 12 12 12 12 12 11 11 11 11 11 10 10 10 10 10 10 9 9 9 9 9 9 8 8 8 8
14 14 14 13 13 13 13 13 13 13 13 12 12 12 12 12 12 12 12 11 11 11 11 11 11 10 10 10 10 10 10 10 10 10 9 9 9 9 8 8 8 8 8
14 14 13 13 13 13 13 13 13 12 12 12 12 12 12 12 12 11 11 11 11 10 10 10 10 10 10 10 10 10 10 10 10 10 9 9 9 9 9 8 8 7 7
Wind_Speed
2 1 1 1 2 2 3 2 2 2 3 3 4 4 3 3 2 3 5 9 9 9 10 11 11 11 11 11 11 11 11 11 11 11 11 11 11 11 11 11 11 11 11
2 2 3 3 3 2 2 2 2 3 3 3 3 3 4 4 3 4 4 8 11 11 12 12 12 12 13 13 13 13 12 12 13 13 13 12 12 12 12 12 12 12 12
3 4 3 3 3 3 3 4 4 4 4 4 4 4 5 5 5 5 5 5 8 13 14 14 13 13 14 14 14 15 14 14 14 14 14 14 14 14 14 14 14 14 14
4 5 4 4 4 5 4 3 4 4 4 4 4 4 5 5 6 7 7 7 7 7 12 16 15 15 15 15 16 16 16 16 16 16 16 16 16 16 16 16 16 16 16
5 5 4 4 5 4 4 5 4 4 4 5 5 5 6 6 6 7 7 8 8 8 8 12 17 16 16 16 16 16 17 18 18 18 18 18 18 18 17 17 17 17 17
5 5 5 4 5 4 4 5 5 5 5 5 7 6 6 7 7 7 8 8 8 9 9 8 10 13 17 17 16 16 16 16 18 18 19 19 20 20 19 19 19 19 18
5 5 4 4 4 4 5 6 6 7 6 5 5 6 7 8 8 7 7 7 7 7 7 7 8 7 9 15 16 15 15 15 16 17 18 19 19 19 20 20 19 20 20
5 5 4 5 5 4 6 6 6 5 5 4 4 5 5 5 6 7 6 6 6 5 6 7 6 6 7 6 9 13 14 14 14 13 13 15 16 17 18 17 17 18 18
5 5 5 5 5 6 5 6 6 6 6 4 5 5 4 4 3 4 4 4 4 4 5 4 5 6 7 6 6 9 11 11 11 11 11 12 13 14 17 17 17 19 19
5 5 5 5 6 6 6 7 6 6 6 6 5 6 7 5 4 3 3 3 3 3 4 4 4 4 4 5 4 3 5 8 9 9 10 11 12 13 14 16 16 16 16
4 4 5 5 5 5 5 6 5 5 5 6 5 4 5 6 7 5 4 3 2 3 2 3 3 3 3 3 2 2 4 6 6 7 7 9 10 10 11 12 12 13 13
3 4 4 4 4 4 4 5 4 5 4 5 5 4 5 4 5 5 5 5 3 2 2 2 2 3 3 2 1 4 4 3 3 4 5 6 6 7 8 9 10 10 11
2 3 3 3 3 4 4 3 3 4 4 4 5 4 5 5 4 4 5 5 4 3 2 2 2 2 2 1 2 5 5 4 2 1 1 2 2 3 4 5 5 6 7
3 2 2 2 3 3 3 2 2 2 2 3 4 4 4 4 3 3 4 4 4 3 2 2 1 2 3 2 5 5 5 6 5 4 4 3 2 1 0 1 1 1 2
2 2 2 2 2 3 2 2 2 2 1 2 2 3 3 3 3 3 3 4 4 4 2 1 0 2 2 3 5 4 5 9 9 8 6 6 5 4 3 2 1 1 0
2 2 2 2 3 3 2 2 1 1 1 1 1 1 2 2 2 2 3 3 3 3 2 1 1 1 3 3 6 6 6 9 10 9 8 8 7 6 5 4 3 3 2
2 2 2 3 3 2 2 2 2 2 2 2 1 1 1 2 1 1 1 1 1 1 2 1 1 3 4 4 5 5 6 6 9 11 10 10 9 8 8 7 6 5 5
2 2 2 2 2 3 3 2 2 3 3 3 3 3 3 2 2 2 1 1 0 1 1 1 1 2 4 3 4 3 5 7 9 13 13 12 12 11 10 9 8 7 7
2 2 3 3 3 3 3 4 4 5 5 5 4 4 4 4 3 3 2 2 1 1 1 2 2 3 3 3 4 5 6 5 7 9 11 12 12 12 12 12 11 11 10
3 3 4 4 4 4 5 5 5 6 6 6 6 6 6 6 5 4 3 4 3 3 3 3 4 3 3 3 2 3 4 4 5 6 8 8 10 11 13 13 13 13 12
4 4 5 5 5 5 5 5 5 6 7 7 8 8 9 10 11 9 6 5 4 3 4 4 4 4 3 2 2 2 4 4 4 4 3 4 5 6 8 11 12 12 12
5 5 6 6 7 7 8 9 6 7 7 8 8 8 8 10 11 12 13 12 10 6 5 4 4 4 4 3 3 2 3 2 2 3 2 4 4 5 6 8 10 10 10
6 6 6 7 8 9 9 9 8 7 8 8 8 7 7 8 8 8 9 9 11 11 8 5 6 5 4 3 2 3 2 3 3 3 2 3 3 4 5 9 10 9 9
6 6 7 7 8 8 7 6 6 8 9 8 8 8 8 8 8 7 8 10 10 10 9 7 7 6 6 4 3 3 3 3 3 3 2 2 3 3 4 6 8 7 7
6 6 6 7 7 7 7 5 3 7 8 9 8 8 8 8 8 7 8 9 9 9 12 13 11 9 9 7 4 2 2 2 2 3 2 1 2 2 2 3 6 6 6
6 6 7 6 6 6 6 6 4 5 7 7 7 9 11 9 9 8 7 8 8 7 7 8 8 7 7 7 5 4 3 2 2 2 3 2 1 1 1 2 3 3 3
Wind_Direction
204 191 250 273 241 188 186 210 226 196 208 209 214 213 226 223 217 211 160 172 196 206 206 207 209 208 207 206 208 210 209 207 207 207 208 209 209 208 208 207 208 209 209
234 232 228 248 254 246 251 246 229 228 229 227 227 226 234 228 218 229 215 184 196 207 212 214 216 217 216 213 213 214 216 217 217 215 216 217 218 218 217 216 215 216 217
248 248 248 243 254 250 240 245 249 246 238 230 227 232 235 238 237 234 238 229 205 203 209 216 221 221 221 221 220 220 221 222 223 222 221 222 223 223 223 223 222 222 222
262 260 256 253 257 255 252 244 246 253 251 247 240 241 240 231 235 235 233 231 235 224 206 210 221 224 224 227 228 227 225 225 227 228 226 225 226 226 227 228 228 227 226
266 263 267 264 257 252 251 257 237 253 256 258 252 238 242 240 238 237 238 239 234 235 231 202 211 222 228 231 233 234 232 229 227 227 227 228 229 228 228 229 230 229 228
265 268 264 263 262 257 251 251 257 251 258 262 268 265 253 245 239 235 238 237 235 234 235 232 220 220 220 228 232 236 237 235 232 231 230 232 232 231 231 232 231 231 231
263 260 275 271 266 262 263 255 252 248 247 252 263 261 250 240 237 239 239 244 238 237 239 239 242 242 219 215 226 233 235 237 235 234 233 233 234 233 232 232 233 235 234
267 257 259 268 265 262 261 260 252 260 254 236 249 263 258 238 225 231 228 230 243 243 240 237 237 240 251 232 217 220 230 235 237 235 236 236 234 234 231 230 232 234 235
270 273 272 270 274 269 264 262 256 255 259 252 238 250 265 258 252 219 219 229 235 249 256 253 243 245 245 247 243 215 216 223 230 235 235 234 234 233 231 231 234 235 236
267 265 264 266 267 269 272 266 257 256 254 255 242 241 257 282 273 252 221 216 226 247 268 272 262 246 248 246 238 243 205 215 224 234 240 240 240 238 236 234 234 236 236
268 270 270 271 270 271 274 277 275 260 255 257 254 250 250 251 250 260 264 266 250 250 253 266 280 287 277 254 239 213 184 205 219 230 242 247 245 243 239 237 237 236 236
273 279 277 277 275 276 272 267 265 258 262 261 260 254 251 252 251 248 256 264 267 269 273 287 282 283 289 278 244 91 120 155 190 221 240 250 251 249 244 241 239 238 239
288 291 292 286 283 279 274 268 256 267 268 261 254 252 251 256 264 260 258 268 276 274 265 265 278 293 307 332 76 88 95 107 116 133 210 240 241 253 248 240 242 244 242
302 315 306 302 305 303 293 283 277 272 270 267 261 254 252 251 254 250 253 259 263 264 246 268 309 11 25 50 74 79 83 88 89 84 81 81 77 61 359 241 230 252 251
315 338 339 337 332 330 322 304 318 317 313 294 273 251 253 251 253 256 255 250 249 259 265 305 349 35 53 68 72 73 75 76 80 78 77 78 79 77 68 61 70 81 73
357 351 354 353 349 351 343 334 348 29 22 6 337 310 281 276 260 261 262 264 255 252 265 334 17 37 56 71 81 80 81 86 78 77 75 76 76 75 70 65 65 68 72
13 3 2 3 3 9 14 24 28 46 46 35 5 351 342 333 316 283 262 255 252 238 227 275 39 73 69 68 74 77 83 81 76 74 76 74 70 69 67 66 67 67 63
34 27 21 21 22 28 33 41 42 48 52 47 31 20 15 19 9 339 350 359 63 211 191 151 95 76 72 78 78 75 78 78 77 77 76 72 69 67 67 68 68 69 69
45 42 44 39 37 37 42 52 54 55 54 51 44 38 32 30 22 24 26 37 42 80 98 116 102 74 69 69 78 78 75 71 79 83 81 77 73 72 69 68 66 66 68
66 57 55 53 52 54 58 61 62 61 58 53 48 45 42 42 37 40 49 47 53 76 94 104 101 88 82 78 82 83 81 68 62 66 67 74 83 84 77 71 69 67 68
82 73 70 68 65 64 57 60 71 69 65 61 59 58 57 55 48 44 49 50 55 72 94 101 100 96 86 80 74 81 88 87 71 52 62 67 78 76 78 77 69 65 68
85 81 76 74 70 65 53 45 55 73 69 68 66 65 69 64 66 64 60 55 49 57 66 81 90 88 77 76 79 95 98 94 76 49 48 64 58 64 67 69 68 69 70
95 88 84 81 78 67 57 57 55 76 75 69 67 64 63 63 60 70 77 79 64 52 46 56 80 80 86 76 79 92 71 53 61 62 43 62 60 67 76 75 78 75 73
97 92 86 85 85 73 56 58 70 84 79 73 68 69 71 65 57 56 74 72 70 61 55 61 70 70 72 66 64 72 88 99 98 81 40 47 61 71 77 87 92 85 83
103 97 92 88 87 78 50 36 42 95 87 79 71 64 66 72 43 33 76 80 77 76 77 75 71 75 72 61 38 66 81 90 95 91 53 32 71 89 105 106 117 121 106
111 105 94 90 88 83 55 28 1 99 96 94 88 82 67 60 44 31 71 80 81 76 77 84 85 87 84 77 57 31 22 31 50 72 50 352 18 343 92 97 93 119 126
Height
1571 1571 1571 1571 1572 1572 1572 1572 1573 1573 1573 1574 1574 1575 1575 1576 1576 1576 1576 1575 1575 1575 1575 1576 1576 1577 1578 1578 1579 1580 1581 1582 1583 1583 1584 1585 1586 1587 1587 1588 1589 1589 1590
1571 1571 1570 1570 1571 1571 1572 1572 1572 1572 1573 1573 1574 1574 1574 1575 1574 1575 1575 1574 1574 1574 1574 1575 1575 1576 1577 1577 1578 1579 1579 1580 1581 1582 1583 1583 1584 1585 1586 1586 1587 1588 1588
1570 1570 1570 1570 1570 1571 1570 1571 1571 1572 1572 1572 1572 1573 1573 1573 1573 1573 1574 1574 1574 1573 1573 1573 1574 1574 1575 1575 1576 1577 1577 1578 1579 1580 1580 1581 1582 1583 1584 1584 1585 1586 1586
1568 1568 1569 1569 1569 1569 1569 1569 1570 1570 1570 1571 1571 1571 1571 1571 1571 1571 1572 1572 1572 1573 1572 1571 1572 1572 1573 1573 1574 1574 1575 1576 1576 1577 1578 1579 1579 1580 1581 1582 1582 1583 1584
1567 1567 1567 1567 1567 1568 1567 1568 1568 1568 1568 1568 1569 1569 1569 1569 1569 1569 1570 1570 1570 1570 1570 1570 1569 1570 1570 1571 1571 1572 1572 1573 1573 1574 1575 1575 1576 1577 1577 1578 1579 1580 1581
1566 1565 1565 1565 1565 1565 1565 1565 1565 1565 1565 1566 1566 1566 1566 1566 1567 1567 1567 1568 1568 1568 1568 1568 1568 1567 1567 1568 1568 1569 1569 1569 1570 1570 1571 1572 1572 1573 1574 1574 1575 1576 1577
1564 1563 1563 1563 1563 1562 1562 1562 1562 1563 1563 1563 1563 1563 1563 1563 1564 1564 1564 1565 1565 1566 1565 1565 1565 1566 1565 1565 1565 1565 1566 1566 1566 1567 1567 1568 1568 1569 1569 1570 1571 1571 1572
1561 1561 1560 1560 1560 1559 1559 1559 1559 1559 1560 1560 1561 1560 1560 1561 1560 1561 1561 1561 1562 1562 1562 1562 1562 1561 1562 1562 1561 1562 1562 1562 1563 1563 1563 1564 1564 1564 1565 1565 1566 1567 1567
1559 1558 1558 1557 1557 1556 1556 1556 1556 1556 1556 1557 1557 1558 1558 1557 1557 1558 1557 1558 1558 1559 1559 1559 1559 1558 1558 1558 1558 1558 1558 1559 1559 1559 1559 1559 1559 1560 1560 1561 1561 1562 1562
1556 1555 1555 1554 1554 1554 1553 1553 1553 1553 1553 1553 1553 1554 1555 1555 1556 1555 1555 1555 1555 1555 1555 1556 1556 1555 1555 1555 1554 1555 1555 1555 1555 1555 1555 1555 1555 1556 1556 1556 1556 1557 1557
1554 1553 1552 1552 1551 1551 1550 1549 1549 1549 1549 1549 1550 1551 1551 1552 1552 1553 1552 1552 1552 1552 1552 1552 1552 1552 1552 1552 1551 1551 1551 1551 1551 1551 1551 1551 1552 1552 1552 1552 1552 1552 1552
1552 1551 1551 1550 1549 1548 1547 1546 1546 1546 1546 1546 1546 1547 1548 1548 1549 1549 1549 1549 1549 1549 1549 1549 1549 1549 1549 1549 1548 1548 1548 1548 1548 1548 1548 1548 1548 1548 1548 1548 1548 1548 1548
1551 1550 1549 1548 1547 1545 1545 1544 1543 1543 1543 1543 1543 1544 1544 1545 1545 1546 1546 1546 1546 1546 1546 1546 1546 1546 1546 1546 1545 1544 1544 1544 1544 1544 1544 1544 1544 1544 1544 1544 1544 1544 1544
1549 1548 1547 1546 1545 1544 1543 1542 1542 1541 1541 1540 1540 1540 1541 1541 1542 1542 1543 1543 1543 1544 1543 1544 1544 1544 1543 1543 1542 1542 1542 1541 1541 1541 1541 1540 1540 1540 1540 1540 1540 1539 1539
1548 1547 1545 1544 1543 1542 1541 1540 1540 1539 1539 1538 1538 1538 1538 1539 1539 1540 1540 1540 1542 1541 1541 1541 1541 1541 1541 1540 1540 1540 1539 1538 1538 1538 1538 1537 1537 1537 1536 1536 1536 1536 1535
1546 1545 1544 1543 1542 1540 1539 1539 1538 1538 1537 1537 1536 1536 1536 1537 1537 1537 1537 1537 1538 1539 1539 1539 1539 1539 1539 1539 1538 1537 1537 1536 1536 1535 1535 1534 1534 1534 1534 1534 1533 1533 1532
1545 1544 1543 1542 1540 1539 1538 1538 1537 1537 1536 1536 1535 1535 1535 1534 1534 1534 1534 1534 1535 1536 1536 1537 1537 1537 1537 1536 1536 1536 1536 1535 1534 1533 1533 1532 1532 1532 1531 1531 1531 1530 1529
1544 1543 1542 1541 1540 1539 1538 1537 1537 1536 1536 1535 1535 1534 1534 1534 1533 1533 1533 1533 1533 1533 1534 1535 1535 1536 1535 1535 1535 1535 1535 1534 1533 1532 1532 1531 1531 1530 1530 1529 1529 1528 1527
1543 1543 1541 1540 1539 1539 1538 1537 1537 1536 1536 1535 1535 1534 1534 1533 1532 1532 1532 1532 1532 1533 1533 1533 1534 1534 1535 1535 1534 1534 1534 1533 1533 1532 1531 1531 1530 1530 1529 1528 1528 1527 1526
1543 1542 1541 1540 1540 1539 1538 1538 1537 1537 1536 1536 1535 1535 1534 1533 1533 1532 1532 1531 1531 1532 1532 1533 1533 1534 1534 1534 1535 1535 1534 1534 1534 1533 1533 1532 1531 1530 1529 1529 1528 1527 1526
1543 1542 1542 1541 1540 1540 1539 1539 1539 1538 1537 1537 1537 1536 1535 1534 1533 1533 1532 1532 1532 1532 1532 1532 1533 1534 1534 1535 1535 1535 1535 1535 1535 1534 1534 1533 1533 1531 1530 1529 1528 1527 1526
1543 1543 1542 1542 1541 1541 1540 1540 1540 1539 1539 1538 1538 1537 1537 1536 1535 1534 1533 1533 1533 1533 1533 1534 1534 1535 1535 1536 1536 1536 1536 1536 1536 1536 1535 1534 1534 1533 1532 1530 1529 1528 1527
1543 1543 1543 1543 1542 1542 1541 1541 1541 1541 1540 1540 1539 1539 1539 1538 1537 1537 1536 1535 1535 1535 1535 1535 1536 1536 1536 1536 1536 1537 1536 1537 1536 1536 1536 1535 1535 1534 1533 1531 1530 1529 1528
1544 1544 1544 1543 1543 1543 1543 1542 1542 1542 1542 1541 1541 1541 1540 1540 1539 1539 1538 1538 1537 1537 1537 1537 1537 1537 1537 1537 1538 1538 1538 1537 1537 1537 1537 1537 1536 1535 1534 1532 1531 1530 1528
1544 1545 1544 1544 1544 1544 1544 1544 1544 1544 1543 1543 1543 1543 1542 1542 1541 1541 1540 1540 1539 1539 1539 1539 1538 1538 1538 1538 1539 1539 1539 1539 1539 1538 1538 1537 1537 1536 1534 1533 1532 1530 1529
1545 1545 1545 1545 1545 1545 1545 1545 1545 1546 1545 1545 1545 1545 1544 1544 1543 1543 1542 1542 1541 1542 1542 1541 1541 1541 1541 1540 1540 1540 1540 1540 1540 1539 1538 1538 1537 1536 1535 1534 1533 1531 1529